Port Angeles, WA
on Wednesday, January 16, 2013

Wednesday
Previous Day Next Day
Daily Summary
 ActualAverageRecord
Temperature
Mean Temperature °F °F  
Max Temperature 42°F 46°F 54°F (1961)
Min Temperature 27°F 35°F 19°F (1950)
Degree Days
Heating Degree Days 30    
Moisture
Dew Point 32°F   
Average Humidity 84    
Maximum Humidity 96    
Minimum Humidity 73    
Precipitation
Precipitation 0.00 in in in ()
Wind
Wind Speed 6 mph   
Max Wind Speed 9 mph   
Max Gust Speed mph   
Visibility 10 miles   
Events     
Averages and records for this station are not official NWS values.
Key: T is trace of precipitation, MM is missing value
Source: NWS Daily Summary
Seasonal Weather Averages
Time(PST)TemperatureDew PointHumidity Pressure Visibility Wind DirectionWind SpeedGust SpeedPrecipitationEvents Conditions
12:53 AM 36.0°F 30.9°F 82% 30.68 in 10.0 miles North - - N/A   Mostly Cloudy
1:53 AM 33.1°F 30.0°F 89% 30.68 in 10.0 miles North - - N/A   Mostly Cloudy
2:25 AM 33.1°F 30.0°F 89% 30.68 in 10.0 miles North - - N/A   Scattered Clouds
2:53 AM 32.0°F 28.9°F 88% 30.69 in 10.0 miles North - - N/A   Mostly Cloudy
3:53 AM 32.0°F 30.0°F 92% 30.68 in 10.0 miles North - - N/A   Overcast
4:17 AM 32.0°F 28.9°F 88% 30.66 in 10.0 miles North - - N/A   Scattered Clouds
4:53 AM 30.9°F 28.9°F 92% 30.66 in 10.0 miles North - - N/A   Clear
5:48 AM 30.2°F 28.4°F 93% 30.63 in 10.0 miles North - - N/A   Mostly Cloudy
5:53 AM 30.0°F 28.9°F 96% 30.64 in 10.0 miles North - - N/A   Scattered Clouds
6:53 AM 28.9°F 28.0°F 96% 30.63 in 10.0 miles North - - N/A   Clear
7:53 AM 27.0°F 26.1°F 96% 30.64 in 10.0 miles North - - N/A   Scattered Clouds
8:08 AM 28.9°F 27.0°F 92% 30.63 in 10.0 miles North - - N/A   Mostly Cloudy
8:53 AM 34.0°F 30.9°F 89% 30.64 in 10.0 miles North - - N/A   Overcast
9:53 AM 39.0°F 34.0°F 82% 30.64 in 10.0 miles North - - N/A   Overcast
10:53 AM 41.0°F 34.0°F 76% 30.64 in 10.0 miles North - - N/A   Overcast
11:53 AM 41.0°F 34.0°F 76% 30.62 in 10.0 miles North - - N/A   Overcast
12:53 PM 42.1°F 34.0°F 73% 30.60 in 10.0 miles North - - N/A   Overcast
1:53 PM 41.0°F 33.1°F 73% 30.60 in 10.0 miles Variable 6.9 mph - N/A   Overcast
2:53 PM 42.1°F 34.0°F 73% 30.58 in 10.0 miles East 8.1 mph - N/A   Overcast
3:53 PM 39.9°F 33.1°F 77% 30.58 in 10.0 miles SE 9.2 mph - N/A   Overcast
4:24 PM 39.9°F 33.1°F 77% 30.57 in 10.0 miles SE 6.9 mph - N/A   Overcast
4:41 PM 39.0°F 33.1°F 79% 30.58 in 10.0 miles SSE 4.6 mph - N/A   Overcast
4:53 PM 39.0°F 33.1°F 79% 30.59 in 10.0 miles SE 5.8 mph - N/A   Overcast
5:24 PM 39.0°F 33.1°F 79% 30.57 in 10.0 miles SSE 4.6 mph - N/A   Overcast
5:53 PM 37.9°F 33.1°F 83% 30.57 in 10.0 miles SE 4.6 mph - N/A   Overcast
6:53 PM 37.9°F 33.1°F 83% 30.58 in 10.0 miles SSE 5.8 mph - N/A   Overcast
7:53 PM 39.0°F 33.1°F 79% 30.56 in 10.0 miles SSE 6.9 mph - N/A   Overcast
8:53 PM 39.0°F 33.1°F 79% 30.55 in 10.0 miles ESE 4.6 mph - N/A   Overcast
9:53 PM 39.0°F 34.0°F 82% 30.55 in 10.0 miles SE 4.6 mph - N/A   Overcast
10:53 PM 39.0°F 34.0°F 82% 30.53 in 10.0 miles SSE 6.9 mph - N/A   Overcast
11:53 PM 37.9°F 34.0°F 86% 30.54 in 10.0 miles SE 4.6 mph - N/A   Overcast
Moon Phase
Jan. 16 Jan. 18 Jan. 26 Feb. 03 Feb. 10
Sunrise:07:58 AM (PST) Moon Rise:10:08 AM (PST)1/16
Sunset:04:49 PM (PST) Moon Set:11:19 PM (PST)1/16

Copyright © 2014 The Weather Underground, Inc.